Regional Weather Roundup
Issued by NWS

Home | Current Version | Previous Version | Text Only | Print | Product List | Glossary On
Versions: 1 2 3 4 5 6 7 8 9 10 11 12 13 14 15 16 17 18 19 20 21 22 23 24 25 26 27 28 29 30 31 32 33 34 35 36 37 38 39 40 41 42 43 44 45 46 47 48 49 50
000
ASUS45 KTFX 012119
RWRMT
MONTANA HOURLY WEATHER ROUNDUP
NATIONAL WEATHER SERVICE GREAT FALLS MT
219 PM MST SUN MAR 1 2015

NOTE: "FAIR" INDICATES FEW OR NO CLOUDS BELOW 12000 FEET WITH NO
SIGNIFICANT WEATHER AND/OR OBSTRUCTIONS TO VISIBILITY.

* THESE STATIONS ARE NOT UNDER NWS QUALITY CONTROL. THEY DO NOT
   REPORT WEATHER SUCH AS PRECIPITATION OR FOG.

MTZ001>007-043-012200-
WEST OF THE DIVIDE
CITY           SKY/WX    TMP DP  RH WIND       PRES   REMARKS
KALISPELL      CLOUDY    32   9  38 NW5       30.15F WCI  27
MISSOULA       PTCLDY    34   7  32 CALM      30.16F
BUTTE          SUNNY     28   7  41 S7        30.07F WCI  21
MULLAN PASS    PTCLDY    25   1  35 VRB3      30.01F
* ANACONDA     SUNNY     30   7  38 SE9        N/A   WCI  22
* ESSEX        N/A       33   3  28 N2G8       N/A
* EUREKA APT   PTCLDY    39   5  24 SE12      30.11F WCI  32
* HAMILTON APT SUNNY     37   7  28 NE6       30.10F WCI  32
* LIBBY APT    PTSUNNY   34   7  32 N5        30.14F WCI  29
* LINCOLN      N/A       35   4  27 S4         N/A
* LOOKOUT PASS N/A       32   6  33 S5G11      N/A   WCI  27
* POLSON       N/A       33  10  38 SW3G8      N/A
* RONAN APT    PTCLDY    36   9  32 N/A        N/A
* SEELEY LAKE  N/A       33   2  26 SW6        N/A   WCI  27
* THOMP F APT  PTSUNNY   31   2  29 W6G12      N/A   WCI  25
$$

MTZ008-052>055-012200-
SOUTHWEST MONTANA
CITY           SKY/WX    TMP DP  RH WIND       PRES   REMARKS
BOZEMAN        SUNNY     30   3  31 VRB3      30.16F
DILLON         SUNNY     28   1  31 CALM      30.09F
* W YELLOWSTON SUNNY     31  -4  22 W3         N/A
* THREE FORKS  SUNNY     30   7  38 N/A        N/A
* BOULDER HILL N/A       23   2  40 S14G21     N/A   WCI  10
* MONIDA PASS  N/A       26  -5  25 NE2G7      N/A
* RAYNOLDS PAS N/A       30   8  39 SE3        N/A
* WHITEHALL    N/A       34   7  32 W4G9       N/A
* WISE RIVER   N/A       29   1  30 SE4G11     N/A
$$

MTZ009>010-012-014-046-048-049-054-012200-
EAST SLOPES AND CENTRAL MONTANA
CITY           SKY/WX    TMP DP  RH WIND       PRES   REMARKS
CUT BANK       PTCLDY    36  10  34 S12       30.03F WCI  28
GREAT FALLS    SUNNY     34  10  37 S16G23    30.10F WCI  24
HELENA         SUNNY     30   9  41 VRB5      30.15F WCI  25
MALMSTROM AFB  SUNNY     32  14  47 S20       30.12F WCI  20
* CONRAD       PTCLDY    36  10  34 SE10G18    N/A   WCI  29
* DEARBORN     N/A       31   6  34 S10G17     N/A   WCI  22
* EAST GLACIER N/A       30   6  36 W19G29     N/A   WCI  18
* MONARCH      N/A       26  -2  29 SE15G20    N/A   WCI  14
* PENDROY      N/A       30  14  51 SW10       N/A   WCI  21
* ROGERS PASS  N/A       27   1  32 SE10G17    N/A   WCI  18
* SWEET GRASS  N/A       33  11  40 S15G21     N/A   WCI  23
* WHITE SULPH  N/A       28   4  36 S9G14      N/A   WCI  19
$$

MTZ011-013-016-021-035-040-045-047-050-051-012200-
NORTH CENTRAL MONTANA
CITY           SKY/WX    TMP DP  RH WIND       PRES   REMARKS
HAVRE          SUNNY     34  10  37 S13       30.18F WCI  25
LEWISTOWN      SUNNY     27   3  35 SW6       30.14F WCI  20
* N BAR RANCH  SUNNY     28   1  31 VRB5      30.14F WCI  22
* CHINOOK      SUNNY     30  12  47 E10       30.20F WCI  21
* FORT BENTON  SUNNY     34  16  48 E12       30.16F WCI  25
* CHESTER      N/A       34  12  40 S9G21      N/A   WCI  27
* DENTON       N/A       32   6  33 S9         N/A   WCI  24
* GEYSER       N/A       32   6  33 E4         N/A
* JUDITH GAP   N/A       27   7  42 E6         N/A   WCI  20
* LOMA         N/A       33  13  44 SE10       N/A   WCI  25
$$

MTZ017>020-022>027-061-062-012200-
NORTHEAST MONTANA
CITY           SKY/WX    TMP DP  RH WIND       PRES   REMARKS
GLASGOW        CLOUDY    28   9  45 W10       30.27F WCI  19
GLENDIVE       PTCLDY    27  10  49 NW10      30.30F WCI  18
JORDAN         SUNNY     30   9  41 W13       30.28F WCI  20
SIDNEY         PTSUNNY   25  12  58 W7        30.33S WCI  17
WOLF POINT     CLOUDY    30  10  43 W9        30.30F WCI  22
* BEAVER HILL  N/A       22  13  68 NW12       N/A   WCI  10
* CIRCLE       N/A       26  15  63 SW11       N/A   WCI  16
* LINDSAY DVD  N/A       21  10  62 W8G13      N/A   WCI  11
* NAVAJO       N/A       22   9  57 NW12       N/A   WCI  10
* PLENTYWOOD A SUNNY     21   9  60 NW9       30.26F WCI  11
* POPLAR APT   SUNNY     27   9  46 W8        30.30F WCI  19
* SACO         N/A       28   8  43 W3G9       N/A
* SCOBEY APT   SUNNY     25   3  38 N5         N/A   WCI  19
$$

MTZ028>042-056>058-012200-
SOUTHCENTRAL AND SOUTHEAST MONTANA
CITY           SKY/WX    TMP DP  RH WIND       PRES   REMARKS
BAKER          LGT SNOW  23  12  63 NW14      30.27F WCI  10
BILLINGS       SUNNY     32   1  26 SW8G16    30.21F WCI  25
LIVINGSTON     SUNNY     30   1  29 W9        30.12F WCI  22
MILES CITY     CLOUDY    25  10  53 N15       30.30F WCI  13
* BIG TIMBER A SUNNY     28   1  31 W10       30.15F WCI  19
* FORSYTH APT  SUNNY     27   9  46 NW8       30.29F WCI  19
* LAUREL APT   SUNNY     32   3  29 S5         N/A   WCI  27
* ROUNDUP APT  SUNNY     34  -2  21 N/A        N/A
* ALZADA       N/A       25  14  63 W9G16      N/A   WCI  16
* HYSHAM       N/A       29   5  36 S4         N/A
* LAME DEER    N/A       20   6  54 NW4G11     N/A
* REED POINT   N/A       31   6  34 SE8G15     N/A   WCI  24
* ROSCOE HILL  N/A       23   0  36 E6         N/A   WCI  16
$$

REGIONAL REPORTS...DAKOTAS
CITY           SKY/WX    TMP DP  RH WIND       PRES   REMARKS
WILLISTON      SUNNY     25  12  58 W13       30.30S WCI  13
DICKINSON      CLOUDY    25  10  53 NW12      30.25R WCI  14
BEACH          LGT SNOW  23  14  68 NW15      30.28S WCI  10
CROSBY         SUNNY     23  14  68 NW12      30.28S WCI  11
TIOGA          PTCLDY    21  12  68 NW16      30.29S WCI   7
WATFORD CITY   PTSUNNY   25  10  53 N13G18    30.27F WCI  13
BISMARCK       PTCLDY    27   9  46 NW16      30.30R WCI  15
GRAND FORKS    PTSUNNY   19  10  68 N13       30.24R WCI   6
FARGO          CLOUDY    21  12  68 NW18      30.24R WCI   6
BUFFALO SD     PTCLDY    25  10  53 NW21      30.20F WCI  10
RAPID CITY     SUNNY     27  14  58 N25       30.24F WCI  12
$$

REGIONAL REPORTS...WYOMING/IDAHO/WASHINGTON
CITY           SKY/WX    TMP DP  RH WIND       PRES   REMARKS
GILLETTE       SUNNY     25   7  46 NW8G17    30.21F WCI  16
SHERIDAN       SUNNY     25   9  50 SW7       30.24F WCI  17
CODY           SUNNY     27  12  53 SE14      30.14F WCI  16
YELLOWSTONE LA SUNNY     16  -4  40 E3        30.07F
SALMON         SUNNY     34   9  35 W5        30.10F WCI  29
MULLAN PASS    PTCLDY    25   1  35 VRB3      30.01S
SAND POINT     PTSUNNY   36  14  40 E3        30.16F
SPOKANE        PTSUNNY   41  10  28 SE9       30.13F
$$

REGIONAL REPORTS...ALBERTA
CITY           SKY/WX    TMP DP  RH WIND       PRES   REMARKS
CALGARY        PTSUNNY   32  12  43 S13       29.94F WCI  22
LETHBRIDGE     PTSUNNY   37  12  36 S21       30.01F WCI  26
MEDICINE HAT   SUNNY     34  21  59 S14G21    30.12F WCI  24
EDMONTON       SUNNY     27  14  58 S13       29.98F WCI  16
WATERTON GATE  N/A       30   9  41 SW22G32    N/A   WCI  17
CARDSTON       N/A       37  16  42 S6         N/A   WCI  32
MILK RIVER     N/A       34  14  44 S15        N/A   WCI  24
$$

REGIONAL REPORTS...SASKATCHEWAN
CITY           SKY/WX    TMP DP  RH WIND       PRES   REMARKS
SWIFT CURRENT  SUNNY     21  10  62 S9        30.17F WCI  11
MOOSE JAW      SUNNY     21  14  74 W15       30.26F WCI   7
REGINA         SUNNY     16  10  77 W12       30.25F WCI   3
VAL MARIE      N/A       27   7  42 N1         N/A
ASSINIBOIA     N/A       19   9  65 W9         N/A   WCI   8
CORONACH       N/A       23  10  57 NW8        N/A   WCI  14

$$




USA.gov is the U.S. government's official web portal to all federal, state and local government web resources and services.